Location: Widewater Village at Stafford
(38.4893°N, 77.3783°W)
Time: 01:30:59
(UTC+00:00)

Tiangong - Pass Details

Date: 03 December 2022
Orbit: 383 x 386 km, 41.5° (Epoch: 03 February)

Event Time Altitude Azimuth Distance (km) Brightness Sun altitude
Rises 23:35:27 0° 275° (W) 2,251 3.1 -20.4°
Reaches altitude 10° 23:37:34 10° 281° (W) 1,400 1.7 -20.8°
Enters shadow 23:39:59 39° 318° (NW) 590 -1.0 -21.3°
